TimeCST,TemperatureF,Dew PointF,Humidity,Sea Level PressureIn,VisibilityMPH,Wind Direction,Wind SpeedMPH,Gust SpeedMPH,PrecipitationIn,Events,Conditions,WindDirDegrees,DateUTC
12:15 AM,3.2,-2.4,78,30.24,10.0,SSW,5.8,-,N/A,,Mostly Cloudy,200,2014-02-07 06:15:00
12:35 AM,3.6,-2.2,77,30.23,10.0,SSW,5.8,-,N/A,,Mostly Cloudy,200,2014-02-07 06:35:00
12:55 AM,3.9,-2.0,76,30.23,10.0,SSW,6.9,-,N/A,,Mostly Cloudy,200,2014-02-07 06:55:00
1:15 AM,3.9,-1.8,77,30.22,10.0,South,8.1,-,N/A,,Mostly Cloudy,190,2014-02-07 07:15:00
1:35 AM,4.5,-1.5,76,30.21,10.0,South,8.1,-,N/A,,Overcast,190,2014-02-07 07:35:00
1:55 AM,4.8,-1.3,76,30.20,10.0,South,9.2,-,N/A,,Overcast,190,2014-02-07 07:55:00
2:15 AM,5.0,-1.1,76,30.20,10.0,South,9.2,-,N/A,,Overcast,190,2014-02-07 08:15:00
2:35 AM,5.4,-0.8,76,30.20,10.0,South,11.5,-,N/A,,Overcast,190,2014-02-07 08:35:00
2:55 AM,5.4,-0.6,76,30.20,10.0,SSW,10.4,-,N/A,,Overcast,200,2014-02-07 08:55:00
3:15 AM,5.5,-0.4,77,30.19,10.0,South,9.2,-,N/A,,Overcast,190,2014-02-07 09:15:00
3:35 AM,5.5,-0.4,77,30.18,10.0,South,9.2,-,N/A,,Overcast,190,2014-02-07 09:35:00
3:55 AM,5.5,-0.4,77,30.17,10.0,South,9.2,-,N/A,,Overcast,190,2014-02-07 09:55:00
4:15 AM,5.9,0.1,77,30.17,10.0,South,10.4,-,N/A,,Overcast,190,2014-02-07 10:15:00
4:35 AM,5.9,0.3,78,30.17,10.0,South,9.2,-,N/A,,Overcast,190,2014-02-07 10:35:00
4:55 AM,6.1,0.5,78,30.17,10.0,South,9.2,-,N/A,,Overcast,190,2014-02-07 10:55:00
5:15 AM,6.1,0.5,78,30.17,10.0,South,9.2,-,N/A,,Overcast,190,2014-02-07 11:15:00
5:35 AM,6.3,0.5,77,30.17,10.0,South,6.9,-,N/A,,Overcast,190,2014-02-07 11:35:00
5:55 AM,6.1,0.5,78,30.16,10.0,South,5.8,-,N/A,,Overcast,180,2014-02-07 11:55:00
6:15 AM,5.9,0.5,78,30.16,10.0,South,8.1,-,N/A,,Overcast,190,2014-02-07 12:15:00
6:35 AM,5.7,0.1,78,30.16,10.0,South,8.1,-,N/A,,Overcast,190,2014-02-07 12:35:00
6:55 AM,5.0,-0.4,78,30.15,10.0,South,6.9,-,N/A,,Mostly Cloudy,180,2014-02-07 12:55:00
7:15 AM,4.1,-1.3,78,30.14,10.0,South,5.8,-,N/A,,Mostly Cloudy,170,2014-02-07 13:15:00
7:35 AM,4.3,-0.8,80,30.15,10.0,South,8.1,-,N/A,,Overcast,180,2014-02-07 13:35:00
7:55 AM,4.8,-0.4,79,30.15,10.0,South,9.2,-,N/A,,Overcast,180,2014-02-07 13:55:00
8:15 AM,4.5,-0.6,80,30.14,5.0,South,8.1,-,N/A,Snow,Light Snow,180,2014-02-07 14:15:00
8:35 AM,3.7,-1.3,80,30.14,10.0,South,6.9,-,N/A,,Clear,180,2014-02-07 14:35:00
8:55 AM,3.9,-1.1,80,30.14,10.0,South,9.2,-,N/A,,Scattered Clouds,180,2014-02-07 14:55:00
9:15 AM,5.5,0.5,80,30.14,7.0,South,10.4,-,N/A,,Overcast,190,2014-02-07 15:15:00
9:35 AM,6.6,1.4,79,30.15,10.0,South,11.5,17.3,N/A,,Overcast,190,2014-02-07 15:35:00
9:55 AM,7.2,1.8,79,30.14,7.0,South,10.4,-,N/A,,Overcast,190,2014-02-07 15:55:00
10:15 AM,7.7,2.3,79,30.14,10.0,South,12.7,-,N/A,,Overcast,190,2014-02-07 16:15:00
10:35 AM,8.6,2.8,77,30.14,7.0,South,12.7,-,N/A,Snow,Light Snow,190,2014-02-07 16:35:00
10:55 AM,8.6,3.0,78,30.13,7.0,South,11.5,-,N/A,Snow,Light Snow,170,2014-02-07 16:55:00
11:15 AM,9.5,3.7,77,30.13,7.0,South,10.4,-,N/A,Snow,Light Snow,170,2014-02-07 17:15:00
11:35 AM,10.0,4.1,77,30.13,10.0,South,10.4,-,N/A,Snow,Light Snow,170,2014-02-07 17:35:00
11:55 AM,10.6,4.6,77,30.13,5.0,South,9.2,-,N/A,Snow,Light Snow,180,2014-02-07 17:55:00
12:15 PM,10.9,4.8,76,30.12,3.0,South,9.2,-,N/A,Snow,Light Snow,180,2014-02-07 18:15:00
12:35 PM,11.7,5.0,75,30.10,7.0,South,12.7,-,N/A,Snow,Light Snow,190,2014-02-07 18:35:00
12:55 PM,11.3,4.8,75,30.09,7.0,South,12.7,-,N/A,Snow,Light Snow,190,2014-02-07 18:55:00
1:15 PM,11.5,4.8,75,30.08,7.0,South,12.7,16.1,N/A,Snow,Light Snow,190,2014-02-07 19:15:00
1:35 PM,11.3,5.2,76,30.07,7.0,South,11.5,-,N/A,Snow,Light Snow,180,2014-02-07 19:35:00
1:55 PM,11.7,5.4,76,30.05,7.0,South,12.7,17.3,N/A,Snow,Light Snow,170,2014-02-07 19:55:00
2:15 PM,11.3,5.2,76,30.05,5.0,South,10.4,-,N/A,Snow,Light Snow,180,2014-02-07 20:15:00
2:35 PM,11.7,5.5,76,30.04,7.0,South,11.5,-,N/A,Snow,Light Snow,180,2014-02-07 20:35:00
2:55 PM,11.3,5.4,77,30.02,5.0,South,11.5,-,N/A,Snow,Light Snow,180,2014-02-07 20:55:00
3:15 PM,11.3,5.5,78,30.02,5.0,South,10.4,-,N/A,Snow,Light Snow,180,2014-02-07 21:15:00
3:35 PM,11.3,5.7,78,30.02,4.0,South,10.4,-,N/A,Snow,Light Snow,180,2014-02-07 21:35:00
3:55 PM,11.5,5.9,78,30.02,5.0,South,9.2,-,N/A,Snow,Light Snow,180,2014-02-07 21:55:00
4:15 PM,11.3,5.9,79,30.00,4.0,SSE,12.7,-,N/A,Snow,Light Snow,160,2014-02-07 22:15:00
4:35 PM,11.3,5.9,79,30.00,5.0,South,12.7,-,N/A,Snow,Light Snow,170,2014-02-07 22:35:00
4:55 PM,11.3,6.1,80,30.01,7.0,South,11.5,-,N/A,Snow,Light Snow,180,2014-02-07 22:55:00
5:15 PM,11.3,5.9,79,30.01,7.0,South,10.4,-,N/A,Snow,Light Snow,180,2014-02-07 23:15:00
5:35 PM,11.3,5.9,79,30.02,7.0,South,10.4,-,N/A,Snow,Light Snow,190,2014-02-07 23:35:00
5:55 PM,11.3,6.3,80,30.02,5.0,South,8.1,-,N/A,Snow,Light Snow,180,2014-02-07 23:55:00
6:15 PM,11.3,6.3,80,30.04,10.0,South,9.2,-,N/A,,Overcast,190,2014-02-08 00:15:00
6:35 PM,11.3,5.9,79,30.03,10.0,South,9.2,-,N/A,,Overcast,190,2014-02-08 00:35:00
6:55 PM,11.3,6.3,80,30.03,10.0,South,9.2,-,N/A,,Overcast,190,2014-02-08 00:55:00
7:15 PM,11.7,6.6,80,30.04,10.0,SSW,10.4,-,N/A,,Overcast,200,2014-02-08 01:15:00
7:35 PM,11.8,6.8,80,30.03,10.0,South,9.2,-,N/A,,Overcast,190,2014-02-08 01:35:00
7:55 PM,11.8,6.8,80,30.01,10.0,South,9.2,-,N/A,,Overcast,180,2014-02-08 01:55:00
8:15 PM,11.8,7.0,81,30.00,10.0,South,9.2,-,N/A,Snow,Light Snow,170,2014-02-08 02:15:00
8:35 PM,12.0,7.5,82,30.00,10.0,South,10.4,-,N/A,,Overcast,170,2014-02-08 02:35:00
8:55 PM,12.2,7.7,82,30.01,10.0,South,9.2,-,N/A,,Overcast,190,2014-02-08 02:55:00
9:15 PM,12.6,8.2,83,30.02,10.0,South,9.2,-,N/A,,Overcast,190,2014-02-08 03:15:00
9:35 PM,12.7,8.4,83,30.00,10.0,South,9.2,-,N/A,Snow,Light Snow,180,2014-02-08 03:35:00
9:55 PM,12.9,8.8,84,29.99,10.0,South,10.4,-,N/A,,Overcast,170,2014-02-08 03:55:00
10:15 PM,13.1,9.1,84,29.99,10.0,South,9.2,-,N/A,,Overcast,180,2014-02-08 04:15:00
10:35 PM,13.1,9.5,86,29.99,10.0,South,10.4,-,N/A,,Overcast,180,2014-02-08 04:35:00
10:55 PM,13.1,9.5,86,29.98,10.0,South,9.2,-,N/A,,Overcast,180,2014-02-08 04:55:00
11:15 PM,13.5,9.9,86,29.99,10.0,South,9.2,-,N/A,Snow,Light Snow,190,2014-02-08 05:15:00
11:35 PM,13.5,10.0,86,29.97,10.0,South,11.5,-,N/A,,Overcast,180,2014-02-08 05:35:00
11:55 PM,13.5,10.0,86,29.95,10.0,South,10.4,-,N/A,,Overcast,180,2014-02-08 05:55:00